Overview Statistics Trail Chart Weather Telemetry Raw packets
 

This is the latest recevied weather packets stored in our database for station/object IU3OVK-13. If no packets are shown the sender has not sent any weather packets the latest 10 day(s).

<< 21 22 23 24 25 26 27 >>
Time Temp. Humidity Pressure Rain* Wind** Luminosity Snow
1788196790 28.33° C 99% 1006.2 hPa - - - -
1788196170 28.33° C 99% 1006.6 hPa - - - -
1788195599 28.33° C 99% 1006.3 hPa - - - -
1788195550 28.33° C 99% 1006.3 hPa - - - -
1788194930 28.33° C 99% 1006.3 hPa - - - -
1788194309 28.33° C 99% 1006.4 hPa - - - -
1788193069 28.89° C 99% 1006.5 hPa - - - -
1788192449 28.89° C 99% 1006.4 hPa - - - -
1788191829 29.44° C 99% 1006.5 hPa - - - -
1788190588 30° C 99% 1006.4 hPa - - - -
1788189968 30° C 99% 1006.4 hPa - - - -
1788189348 30° C 99% 1006.3 hPa - - - -
1788188728 30.56° C 99% 1006.2 hPa - - - -
1788188107 30.56° C 99% 1006.4 hPa - - - -
1788187487 30.56° C 99% 1005.6 hPa - - - -
1788186867 30° C 99% 1006.7 hPa - - - -
1788186247 30.56° C 99% 1006.7 hPa - - - -
1788185627 31.11° C 99% 1005.6 hPa - - - -
1788184386 30.56° C 99% 1006.4 hPa - - - -
1788183766 31.11° C 99% 1006.8 hPa - - - -
1788183146 31.67° C 97% 1005.7 hPa - - - -
1788182525 31.67° C 99% 1005.7 hPa - - - -
1788181905 31.67° C 94% 1005.8 hPa - - - -
1788181285 30.56° C 98% 1007.8 hPa - - - -
1788180665 32.78° C 85% 1003.5 hPa - - - -

* Rain since midnight (hover to see other rain measurements)
** Current wind speed in m/s (hover to see current wind gust speed)